^^
Saratoga-Weather Station Historical Data
Daily Summary for March 13, 2021 Units:  English    Metric   Both
Daily Weekly Monthly Yearly Custom
  High: Low: Average:
Temperature: 69.8 °F 64.9 °F 67.1 °F
Dew Point: 65.7 °F 63.1 °F 64.4 °F
Humidity: 94% 83% 91%
Wind Speed: 2mph 0mph 0.1mph
Wind Gust: 3mph - -
Wind- - West
Pressure: 30.1 in 30.1 in -
Precipitation: 0.02 in    
Historical Graphs
 
 
Tabular Data for March 13, 2021
Time Temperature Dew Point Pressure Wind Wind Speed Wind Gust Humidity Rainfall Rate (Hourly) solar
00:02 69.3 °F 64.2 °F 30.1 in Calm     84% 0 in 0 W/m2
00:07 69.4 °F 64.4 °F 30.1 in Calm     84% 0 in 0 W/m2
00:12 69.6 °F 64.2 °F 30.1 in Calm     83% 0 in 0 W/m2
00:17 69.6 °F 64.2 °F 30.1 in Calm     83% 0 in 0 W/m2
00:27 69.8 °F 64.4 °F 30.1 in Calm     83% 0 in 0 W/m2
00:32 69.8 °F 64.8 °F 30.1 in Calm     84% 0 in 0 W/m2
00:37 69.8 °F 64.8 °F 30.1 in Calm     84% 0 in 0 W/m2
00:42 69.8 °F 64.8 °F 30.1 in Calm     84% 0 in 0 W/m2
00:47 69.6 °F 64.6 °F 30.1 in Calm     84% 0 in 0 W/m2
00:52 69.6 °F 64.6 °F 30.1 in Calm     84% 0 in 0 W/m2
00:57 69.6 °F 64.6 °F 30.1 in Calm   2 mph 84% 0 in 0 W/m2
01:02 69.6 °F 64.9 °F 30.1 in Calm   1 mph 85% 0 in 0 W/m2
01:07 69.4 °F 65.5 °F 30.1 in Calm   2 mph 87% 0 in 0 W/m2
01:12 69.3 °F 65.3 °F 30.1 in Calm     87% 0 in 0 W/m2
01:17 69.1 °F 65.3 °F 30.1 in Calm     88% 0 in 0 W/m2
01:22 69.1 °F 65.7 °F 30.1 in Calm     89% 0 in 0 W/m2
01:27 68.7 °F 65.3 °F 30.1 in Calm   1 mph 89% 0 in 0 W/m2
01:32 68.5 °F 65.1 °F 30.1 in Calm   1 mph 89% 0 in 0 W/m2
01:37 68.4 °F 65.3 °F 30.1 in Calm     90% 0 in 0 W/m2
01:42 68.4 °F 65.3 °F 30.1 in Calm   1 mph 90% 0.02 in 0 W/m2
01:47 68.2 °F 65.1 °F 30.1 in Calm     90% 0.02 in 0 W/m2
01:52 67.8 °F 65.1 °F 30.1 in SW 0.9 mph 2 mph 91% 0.02 in 0 W/m2
01:57 67.6 °F 64.9 °F 30.1 in Calm     91% 0.02 in 0 W/m2
02:02 67.5 °F 65.1 °F 30.1 in Calm   2 mph 92% 0.02 in 0 W/m2
02:07 67.3 °F 64.9 °F 30.1 in Calm     92% 0.02 in 0 W/m2
02:12 67.1 °F 64.8 °F 30.1 in Calm     92% 0.02 in 0 W/m2
02:17 66.9 °F 64.8 °F 30.1 in Calm     93% 0.02 in 0 W/m2
02:22 66.9 °F 64.8 °F 30.1 in Calm     93% 0.02 in 0 W/m2
02:27 66.9 °F 64.8 °F 30.1 in Calm     93% 0.02 in 0 W/m2
02:32 66.9 °F 64.8 °F 30.1 in Calm     93% 0.02 in 0 W/m2
02:37 66.7 °F 64.6 °F 30.1 in SW 2 mph 2 mph 93% 0.02 in 0 W/m2
02:42 66.7 °F 64.6 °F 30.1 in WNW 0.9 mph 2 mph 93% 0 in 0 W/m2
02:47 66.7 °F 64.6 °F 30.1 in Calm   1 mph 93% 0 in 0 W/m2
02:52 66.6 °F 64.4 °F 30.1 in Calm     93% 0 in 0 W/m2
02:57 66.6 °F 64.4 °F 30.1 in WNW 0.9 mph 2 mph 93% 0 in 0 W/m2
03:02 66.4 °F 64.2 °F 30.1 in West 0.9 mph 3 mph 93% 0 in 0 W/m2
03:07 66.4 °F 64.2 °F 30.1 in West 0.9 mph 1 mph 93% 0 in 0 W/m2
03:12 66.2 °F 64 °F 30.1 in Calm     93% 0 in 0 W/m2
03:17 66 °F 63.9 °F 30.1 in Calm     93% 0 in 0 W/m2
03:22 65.8 °F 63.7 °F 30.1 in West 0.9 mph 2 mph 93% 0 in 0 W/m2
03:27 65.8 °F 63.7 °F 30.1 in Calm     93% 0 in 0 W/m2
03:32 65.7 °F 63.9 °F 30.1 in Calm   2 mph 94% 0 in 0 W/m2
03:37 65.7 °F 63.9 °F 30.1 in Calm     94% 0 in 0 W/m2
03:42 65.8 °F 64 °F 30.1 in Calm     94% 0.01 in 0 W/m2
03:47 65.8 °F 64 °F 30.1 in Calm     94% 0.01 in 0 W/m2
03:52 65.8 °F 64 °F 30.1 in Calm     94% 0.01 in 0 W/m2
03:57 65.8 °F 64 °F 30.1 in Calm     94% 0.01 in 0 W/m2
04:02 65.7 °F 63.9 °F 30.1 in Calm     94% 0.01 in 0 W/m2
04:07 65.7 °F 63.9 °F 30.1 in Calm     94% 0.01 in 0 W/m2
04:12 65.7 °F 63.9 °F 30.1 in Calm     94% 0.01 in 0 W/m2
04:17 65.8 °F 64 °F 30.1 in Calm     94% 0.01 in 0 W/m2
04:22 65.8 °F 64 °F 30.1 in Calm     94% 0.01 in 0 W/m2
04:27 65.8 °F 64 °F 30.1 in Calm     94% 0.01 in 0 W/m2
04:32 65.7 °F 63.9 °F 30.1 in Calm     94% 0.01 in 0 W/m2
04:38 65.7 °F 63.9 °F 30.1 in Calm     94% 0.01 in 0 W/m2
04:43 65.7 °F 63.9 °F 30.1 in Calm     94% 0 in 0 W/m2
04:48 65.7 °F 63.9 °F 30.1 in Calm     94% 0 in 0 W/m2
04:53 65.7 °F 63.9 °F 30.1 in Calm     94% 0 in 0 W/m2
04:58 65.5 °F 63.7 °F 30.1 in Calm     94% 0 in 0 W/m2
05:03 65.5 °F 63.7 °F 30.1 in Calm     94% 0 in 0 W/m2
05:08 65.3 °F 63.5 °F 30.1 in Calm     94% 0 in 0 W/m2
05:13 65.1 °F 63.3 °F 30.1 in Calm     94% 0 in 0 W/m2
05:18 65.1 °F 63.3 °F 30.1 in Calm     94% 0 in 0 W/m2
05:23 64.9 °F 63.1 °F 30.1 in Calm     94% 0 in 0 W/m2
Juneau County Weather
Compliments of Weather Underground - 4 mb